TimeEDT,TemperatureF,Dew PointF,Humidity,Sea Level PressureIn,VisibilityMPH,Wind Direction,Wind SpeedMPH,Gust SpeedMPH,PrecipitationIn,Events,Conditions,WindDirDegrees,DateUTC
12:15 AM,57.2,55.4,94,30.28,4.0,NNE,6.9,-,0.06,Rain,Light Rain,20,2012-09-14 04:15:00
12:27 AM,57.2,55.4,94,30.28,6.0,North,8.1,-,N/A,Rain,Light Rain,10,2012-09-14 04:27:00
12:44 AM,57.2,55.4,94,30.28,8.0,NNE,4.6,-,0.08,Rain,Light Rain,20,2012-09-14 04:44:00
12:53 AM,57.9,55.0,90,30.27,5.0,NNE,6.9,-,0.08,Rain,Light Rain,20,2012-09-14 04:53:00
1:02 AM,57.2,55.4,94,30.27,5.0,NNE,6.9,-,0.01,Rain,Light Rain,30,2012-09-14 05:02:00
1:29 AM,57.2,55.4,94,30.27,8.0,North,6.9,-,0.02,Rain,Light Rain,10,2012-09-14 05:29:00
1:44 AM,57.2,55.4,94,30.28,6.0,Calm,Calm,-,0.03,Rain,Light Rain,0,2012-09-14 05:44:00
1:53 AM,57.9,55.0,90,30.27,4.0,North,3.5,-,0.05,Rain,Light Rain,10,2012-09-14 05:53:00
2:34 AM,57.2,55.4,94,30.27,4.0,North,9.2,-,0.03,Rain,Light Rain,360,2012-09-14 06:34:00
2:45 AM,57.2,53.6,88,30.26,3.0,North,11.5,-,0.04,Rain,Rain,10,2012-09-14 06:45:00
2:53 AM,57.0,54.0,89,30.26,2.5,North,11.5,-,0.07,Rain,Rain,360,2012-09-14 06:53:00
3:00 AM,57.2,53.6,88,30.26,6.0,NNW,9.2,-,0.01,Rain,Light Rain,340,2012-09-14 07:00:00
3:53 AM,55.0,52.0,89,30.25,5.0,North,12.7,-,0.10,Rain,Light Rain,350,2012-09-14 07:53:00
4:12 AM,55.4,51.8,88,30.26,8.0,North,10.4,-,0.02,Rain,Light Rain,350,2012-09-14 08:12:00
4:30 AM,55.4,51.8,88,30.26,8.0,North,6.9,-,0.03,Rain,Light Rain,350,2012-09-14 08:30:00
4:51 AM,53.6,51.8,94,30.26,5.0,NNW,9.2,-,0.06,Rain,Rain,340,2012-09-14 08:51:00
4:53 AM,54.0,52.0,93,30.26,5.0,North,11.5,-,0.06,Rain,Rain,350,2012-09-14 08:53:00
5:53 AM,53.1,51.1,93,30.27,5.0,NNW,5.8,-,0.09,Rain,Rain,340,2012-09-14 09:53:00
6:03 AM,53.6,50.0,88,30.26,6.0,North,5.8,-,0.02,Rain,Light Rain,360,2012-09-14 10:03:00
6:10 AM,53.6,50.0,88,30.27,6.0,NNW,6.9,-,0.03,Rain,Light Rain,340,2012-09-14 10:10:00
6:53 AM,53.1,50.0,89,30.27,9.0,NNW,3.5,-,0.07,Rain,Light Rain,330,2012-09-14 10:53:00
7:53 AM,54.0,51.1,90,30.29,10.0,NNW,3.5,-,0.01,Rain,Light Rain,330,2012-09-14 11:53:00
8:27 AM,53.6,51.8,94,30.28,10.0,WNW,4.6,-,0.01,Rain,Light Rain,300,2012-09-14 12:27:00
8:43 AM,53.6,51.8,94,30.29,10.0,WNW,8.1,-,0.02,,Overcast,290,2012-09-14 12:43:00
8:53 AM,53.6,51.8,94,30.28,10.0,NW,8.1,-,N/A,,Overcast,310,2012-09-14 12:53:00
9:53 AM,55.0,51.1,86,30.29,10.0,WNW,6.9,-,N/A,,Mostly Cloudy,300,2012-09-14 13:53:00
9:59 AM,57.2,51.8,82,30.29,10.0,NW,6.9,-,N/A,,Scattered Clouds,320,2012-09-14 13:59:00
10:53 AM,61.0,51.1,70,30.29,10.0,WNW,10.4,-,N/A,,Clear,300,2012-09-14 14:53:00
11:53 AM,64.9,50.0,58,30.28,10.0,NW,10.4,-,N/A,,Clear,310,2012-09-14 15:53:00
12:53 PM,66.9,48.0,51,30.27,10.0,NNW,12.7,21.9,N/A,,Clear,340,2012-09-14 16:53:00
1:53 PM,69.1,45.0,42,30.26,10.0,NW,12.7,-,N/A,,Clear,320,2012-09-14 17:53:00
2:53 PM,70.0,44.1,39,30.25,10.0,NW,9.2,-,N/A,,Clear,310,2012-09-14 18:53:00
3:53 PM,71.1,44.1,38,30.24,10.0,WNW,15.0,19.6,N/A,,Partly Cloudy,290,2012-09-14 19:53:00
4:53 PM,68.0,43.0,40,30.24,10.0,NW,8.1,-,N/A,,Mostly Cloudy,310,2012-09-14 20:53:00
5:53 PM,68.0,42.1,39,30.24,10.0,NW,5.8,-,N/A,,Scattered Clouds,310,2012-09-14 21:53:00
6:53 PM,69.1,45.0,42,30.25,10.0,WNW,5.8,-,N/A,,Partly Cloudy,290,2012-09-14 22:53:00
7:53 PM,62.1,46.0,56,30.25,10.0,West,4.6,-,N/A,,Clear,270,2012-09-14 23:53:00
8:53 PM,60.1,46.0,60,30.27,10.0,West,4.6,-,N/A,,Clear,280,2012-09-15 00:53:00
9:53 PM,55.9,46.9,72,30.27,10.0,WNW,4.6,-,N/A,,Clear,290,2012-09-15 01:53:00
10:53 PM,53.1,45.0,74,30.29,10.0,WNW,5.8,-,N/A,,Clear,300,2012-09-15 02:53:00
11:53 PM,52.0,44.1,74,30.29,10.0,WNW,4.6,-,N/A,,Clear,290,2012-09-15 03:53:00